Miscellaneous Local Product
Issued by NWS Hastings, NE

Home | Current Version | Previous Version | Graphics & Text | Print | Product List | Glossary On
Versions: 1 2 3 4 5 6 7 8 9 10 11 12 13 14 15 16 17 18 19 20 21 22 23 24 25 26 27 28 29 30 31 32 33 34 35 36 37 38 39 40 41 42 43 44 45 46 47 48 49 50
000
AXUS43 KGID 251702
MISGRI

GID CWA HOURLY WEATHER ROUNDUP
NATIONAL WEATHER SERVICE HASTINGS NE
1100 AM CST THU DEC 25 2014

NOTE: "FAIR" INDICATES FEW OR NO CLOUDS BELOW 12,000 FEET WITH NO
SIGNIFICANT WEATHER AND/OR OBSTRUCTIONS TO VISIBILITY.

...SOUTH CENTRAL NEBRASKA...

CITY           SKY/WX    TMP DP  RH WIND       PRES   REMARKS
GRAND ISLAND   SUNNY     37  25  61 SE9       29.55S WCI  30
HASTINGS       SUNNY     39  22  50 S12       29.52R WCI  32
KEARNEY        SUNNY     37  25  60 SE10      29.51S WCI  30
ORD            SUNNY     34  24  67 CALM      29.55R
YORK           SUNNY     39  27  60 S17       29.57F WCI  30
AURORA         SUNNY     38  26  60 S15       29.55R WCI  30
LEXINGTON      SUNNY     34  24  67 SE6       29.49F WCI  29
HOLDREGE       SUNNY     36  22  57 S13       29.49R WCI  27
HEBRON         SUNNY     41  26  55 S14G24    29.58F

...NEBRASKA PANHANDLE...

CITY           SKY/WX    TMP DP  RH WIND       PRES   REMARKS
CHADRON        SNOW      30  28  92 NE17      29.66R VSB 1/4 WCI  18
ALLIANCE       CLOUDY    29  27  92 N17       29.56R FOG     WCI  17
SCOTTSBLUFF    LGT SNOW  30  27  88 NE18G25   29.57R VSB 3/4 WCI  18
SIDNEY         CLOUDY    34  26  72 N18       29.52R WCI  23

...WESTERN AND NORTH CENTRAL NEBRASKA...

CITY           SKY/WX    TMP DP  RH WIND       PRES   REMARKS
VALENTINE      CLOUDY    32  28  85 NE16      29.61S WCI  21
AINSWORTH      PTSUNNY   31  25  81 N13       29.58R WCI  21
ONEILL         MOSUNNY   31  28  87 N12       29.58S WCI  22
BROKEN BOW     SUNNY     36  24  62 E7        29.50F WCI  30
IMPERIAL       SUNNY     36  22  56 NE9       29.46R WCI  29
NORTH PLATTE   SUNNY     38  23  55 E9        29.48R WCI  31
MCCOOK         SUNNY     34  23  64 E5        29.45R WCI  30

...EASTERN NEBRASKA...

CITY           SKY/WX    TMP DP  RH WIND       PRES   REMARKS
NORFOLK        MOSUNNY   35  26  69 SE8       29.60S WCI  29
SO SIOUX CITY  PTSUNNY   37  31  78 SE7       29.66R WCI  32
TEKAMAH        CLOUDY    37  31  78 SE10      29.66F WCI  30
COLUMBUS       SUNNY     37  25  60 S9        29.62S WCI  31
ALBION         MOSUNNY   35  26  70 SE7       29.57F WCI  29
OMAHA EPPLEY   MOSUNNY   38  29  70 S20       29.69F WCI  28
OFFUTT AFB     MOSUNNY   38  30  72 SE12      29.68F WCI  31
MILLARD        MOSUNNY   39  29  68 SE12      29.67F WCI  32
LINCOLN        SUNNY     42  29  59 S16       29.63F
NEBRASKA CITY  SUNNY     40  29  64 S14G20    29.68F WCI  32
BEATRICE       SUNNY     42  29  59 S18       29.62F
FALLS CITY     SUNNY     41  29  62 S17G24    29.71S

...NORTHERN KANSAS...

CITY           SKY/WX    TMP DP  RH WIND       PRES   REMARKS
GOODLAND       SUNNY     38  26  62 NW8       29.44R WCI  32
HILL CITY      SUNNY     40  22  48 SW8       29.47R WCI  34
NORTON         SUNNY     37  19  48 SE6       29.44F WCI  33
PHILLIPSBURG   SUNNY     43  25  49 SE8       29.50S
SMITH CENTER   SUNNY     37  25  60 SE17      29.51F WCI  28
BELOIT         SUNNY     45  27  49 S16G24    29.56S
HAYS           SUNNY     43  21  42 S21G26    29.49R
RUSSELL        SUNNY     42  25  50 S20G31    29.50R
CONCORDIA      SUNNY     43  27  53 S22G28    29.58S
SALINA         SUNNY     45  28  51 S23G37    29.59S
TOPEKA         SUNNY     47  28  47 S17G26    29.75F



USA.gov is the U.S. government's official web portal to all federal, state and local government web resources and services.